Time,TemperatureF,DewpointF,PressureIn,WindDirection,WindDirectionDegrees,WindSpeedMPH,WindSpeedGustMPH,Humidity,HourlyPrecipIn,Conditions,Clouds,dailyrainin,SoftwareType,DateUTC
2013-01-25 00:01:00,10.0,2.0,30.24,South,182,1.0,-999.0,70,-99.99,,,0.00,weatherlink.com 1.10,2013-01-25 06:01:00,
2013-01-25 00:15:00,10.0,3.0,30.23,SSE,150,1.0,-999.0,72,-99.99,,,0.00,weatherlink.com 1.10,2013-01-25 06:15:00,
2013-01-25 00:30:00,9.9,3.0,30.21,South,185,2.0,-999.0,73,-99.99,,,0.00,weatherlink.com 1.10,2013-01-25 06:30:00,
2013-01-25 00:45:00,10.0,4.0,30.20,SE,145,1.0,-999.0,75,-99.99,,,0.00,weatherlink.com 1.10,2013-01-25 06:45:00,
2013-01-25 01:00:00,10.0,4.0,30.19,NNW,330,0.0,-999.0,77,-99.99,,,0.00,weatherlink.com 1.10,2013-01-25 07:00:00,
2013-01-25 01:15:00,10.0,4.0,30.19,SW,217,0.0,-999.0,77,-99.99,,,0.00,weatherlink.com 1.10,2013-01-25 07:15:00,
2013-01-25 01:30:00,10.0,4.0,30.17,NE,56,0.0,-999.0,78,-99.99,,,0.00,weatherlink.com 1.10,2013-01-25 07:30:00,
2013-01-25 01:45:00,10.2,5.0,30.17,South,191,0.0,-999.0,79,-99.99,,,0.00,weatherlink.com 1.10,2013-01-25 07:45:00,
2013-01-25 02:00:00,10.2,5.0,30.16,South,191,0.0,-999.0,80,-99.99,,,0.00,weatherlink.com 1.10,2013-01-25 08:00:00,
2013-01-25 02:16:00,10.4,5.0,30.14,ENE,68,1.0,-999.0,80,-99.99,,,0.00,weatherlink.com 1.10,2013-01-25 08:16:00,
2013-01-25 02:31:00,10.5,6.0,30.14,South,179,0.0,-999.0,81,-99.99,,,0.00,weatherlink.com 1.10,2013-01-25 08:31:00,
2013-01-25 02:46:00,10.7,6.0,30.13,SSW,195,0.0,-999.0,81,-99.99,,,0.00,weatherlink.com 1.10,2013-01-25 08:46:00,
2013-01-25 03:01:00,10.7,6.0,30.12,South,174,0.0,-999.0,81,-99.99,,,0.00,weatherlink.com 1.10,2013-01-25 09:01:00,
2013-01-25 03:15:00,10.9,6.0,30.10,South,188,0.0,-999.0,81,-99.99,,,0.00,weatherlink.com 1.10,2013-01-25 09:15:00,
2013-01-25 03:30:00,11.1,6.0,30.10,South,176,1.0,-999.0,81,-99.99,,,0.00,weatherlink.com 1.10,2013-01-25 09:30:00,
2013-01-25 03:45:00,11.2,6.0,30.09,SW,231,0.0,-999.0,81,-99.99,,,0.00,weatherlink.com 1.10,2013-01-25 09:45:00,
2013-01-25 04:00:00,11.2,6.0,30.07,North,355,0.0,-999.0,81,-99.99,,,0.00,weatherlink.com 1.10,2013-01-25 10:00:00,
2013-01-25 04:16:00,11.4,7.0,30.06,South,188,0.0,-999.0,81,-99.99,,,0.00,weatherlink.com 1.10,2013-01-25 10:16:00,
2013-01-25 04:31:00,11.4,7.0,30.05,SW,229,1.0,-999.0,81,-99.99,,,0.00,weatherlink.com 1.10,2013-01-25 10:31:00,
2013-01-25 04:46:00,11.6,7.0,30.04,South,175,0.0,-999.0,81,-99.99,,,0.00,weatherlink.com 1.10,2013-01-25 10:46:00,
2013-01-25 05:01:00,11.6,7.0,30.02,South,175,0.0,-999.0,81,-99.99,,,0.00,weatherlink.com 1.10,2013-01-25 11:01:00,
2013-01-25 05:16:00,11.7,7.0,30.01,SE,125,0.0,-999.0,81,-99.99,,,0.00,weatherlink.com 1.10,2013-01-25 11:16:00,
2013-01-25 05:31:00,11.9,7.0,30.01,SW,230,0.0,-999.0,81,-99.99,,,0.00,weatherlink.com 1.10,2013-01-25 11:31:00,
2013-01-25 05:46:00,12.1,7.0,30.00,South,186,0.0,-999.0,81,-99.99,,,0.00,weatherlink.com 1.10,2013-01-25 11:46:00,
2013-01-25 06:01:00,12.3,8.0,29.99,SW,226,0.0,-999.0,81,-99.99,,,0.00,weatherlink.com 1.10,2013-01-25 12:01:00,
2013-01-25 06:16:00,12.6,8.0,29.98,SSW,205,0.0,-999.0,81,-99.99,,,0.00,weatherlink.com 1.10,2013-01-25 12:16:00,
2013-01-25 06:31:00,12.8,8.0,29.98,South,188,0.0,-999.0,81,-99.99,,,0.00,weatherlink.com 1.10,2013-01-25 12:31:00,
2013-01-25 06:47:00,13.1,8.0,29.98,SSW,202,0.0,-999.0,81,-99.99,,,0.00,weatherlink.com 1.10,2013-01-25 12:47:00,
2013-01-25 07:02:00,13.6,9.0,29.96,SE,135,3.0,-999.0,81,-99.99,,,0.00,weatherlink.com 1.10,2013-01-25 13:02:00,
2013-01-25 07:17:00,14.0,9.0,29.96,SSE,153,0.0,-999.0,80,-99.99,,,0.00,weatherlink.com 1.10,2013-01-25 13:17:00,
2013-01-25 07:32:00,14.3,9.0,29.95,SW,229,0.0,-999.0,80,-99.99,,,0.00,weatherlink.com 1.10,2013-01-25 13:32:00,
2013-01-25 07:47:00,14.6,9.0,29.95,SW,225,0.0,-999.0,79,-99.99,,,0.00,weatherlink.com 1.10,2013-01-25 13:47:00,
2013-01-25 08:02:00,14.8,9.0,29.94,SW,219,0.0,-999.0,79,-99.99,,,0.00,weatherlink.com 1.10,2013-01-25 14:02:00,
2013-01-25 08:17:00,15.1,9.0,29.94,SSE,162,2.0,-999.0,78,-99.99,,,0.00,weatherlink.com 1.10,2013-01-25 14:17:00,
2013-01-25 08:32:00,15.6,10.0,29.93,SW,225,4.0,-999.0,77,-99.99,,,0.00,weatherlink.com 1.10,2013-01-25 14:32:00,
2013-01-25 08:47:00,16.1,10.0,29.93,South,180,0.0,-999.0,76,-99.99,,,0.00,weatherlink.com 1.10,2013-01-25 14:47:00,
2013-01-25 09:02:00,16.4,10.0,29.92,West,267,0.0,-999.0,76,-99.99,,,0.00,weatherlink.com 1.10,2013-01-25 15:02:00,
2013-01-25 09:17:00,16.5,10.0,29.92,West,270,2.0,-999.0,76,-99.99,,,0.00,weatherlink.com 1.10,2013-01-25 15:17:00,
2013-01-25 09:32:00,16.9,11.0,29.92,SW,220,1.0,-999.0,77,-99.99,,,0.00,weatherlink.com 1.10,2013-01-25 15:32:00,
2013-01-25 09:47:00,17.2,11.0,29.92,WNW,286,2.0,-999.0,76,-99.99,,,0.00,weatherlink.com 1.10,2013-01-25 15:47:00,
2013-01-25 10:02:00,17.3,11.0,29.92,SSW,209,5.0,-999.0,77,-99.99,,,0.00,weatherlink.com 1.10,2013-01-25 16:02:00,
2013-01-25 10:17:00,17.5,11.0,29.92,SW,227,7.0,-999.0,77,-99.99,,,0.00,weatherlink.com 1.10,2013-01-25 16:17:00,
2013-01-25 10:32:00,18.0,11.0,29.92,WNW,289,5.0,-999.0,75,-99.99,,,0.00,weatherlink.com 1.10,2013-01-25 16:32:00,
2013-01-25 10:47:00,18.3,11.0,29.92,SW,214,4.0,-999.0,74,-99.99,,,0.00,weatherlink.com 1.10,2013-01-25 16:47:00,
2013-01-25 11:02:00,18.4,12.0,29.92,WNW,292,2.0,-999.0,75,-99.99,,,0.00,weatherlink.com 1.10,2013-01-25 17:02:00,
2013-01-25 11:17:00,18.9,12.0,29.91,SW,236,5.0,-999.0,74,-99.99,,,0.00,weatherlink.com 1.10,2013-01-25 17:17:00,
2013-01-25 11:32:00,19.7,11.0,29.90,WNW,283,2.0,-999.0,70,-99.99,,,0.00,weatherlink.com 1.10,2013-01-25 17:32:00,
2013-01-25 11:47:00,20.5,12.0,29.90,WNW,302,1.0,-999.0,69,-99.99,,,0.00,weatherlink.com 1.10,2013-01-25 17:47:00,
2013-01-25 12:02:00,20.6,12.0,29.90,NE,43,1.0,-999.0,69,-99.99,,,0.00,weatherlink.com 1.10,2013-01-25 18:02:00,
2013-01-25 12:18:00,20.3,11.0,29.91,West,281,0.0,-999.0,68,-99.99,,,0.00,weatherlink.com 1.10,2013-01-25 18:18:00,
2013-01-25 12:33:00,19.7,12.0,29.91,NE,36,0.0,-999.0,73,-99.99,,,0.00,weatherlink.com 1.10,2013-01-25 18:33:00,
2013-01-25 12:48:00,19.2,13.0,29.92,NE,54,0.0,-999.0,78,-99.99,,,0.00,weatherlink.com 1.10,2013-01-25 18:48:00,
2013-01-25 13:03:00,18.9,11.0,29.93,NNE,23,6.0,-999.0,71,-99.99,,,0.00,weatherlink.com 1.10,2013-01-25 19:03:00,
2013-01-25 13:17:00,18.6,10.0,29.94,North,5,5.0,-999.0,69,-99.99,,,0.00,weatherlink.com 1.10,2013-01-25 19:17:00,
2013-01-25 13:32:00,18.8,9.0,29.95,NNE,32,2.0,-999.0,65,-99.99,,,0.00,weatherlink.com 1.10,2013-01-25 19:32:00,
2013-01-25 13:47:00,19.5,8.0,29.95,WSW,254,2.0,-999.0,62,-99.99,,,0.00,weatherlink.com 1.10,2013-01-25 19:47:00,
2013-01-25 14:02:00,20.5,8.0,29.95,NE,35,3.0,-999.0,59,-99.99,,,0.00,weatherlink.com 1.10,2013-01-25 20:02:00,
2013-01-25 14:17:00,20.3,7.0,29.96,East,80,2.0,-999.0,57,-99.99,,,0.00,weatherlink.com 1.10,2013-01-25 20:17:00,
2013-01-25 14:32:00,20.2,7.0,29.98,North,360,2.0,-999.0,58,-99.99,,,0.00,weatherlink.com 1.10,2013-01-25 20:32:00,
2013-01-25 14:47:00,19.1,7.0,29.98,NNW,329,1.0,-999.0,60,-99.99,,,0.00,weatherlink.com 1.10,2013-01-25 20:47:00,
2013-01-25 15:02:00,18.6,7.0,30.00,North,5,4.0,-999.0,60,-99.99,,,0.00,weatherlink.com 1.10,2013-01-25 21:02:00,
2013-01-25 15:17:00,18.9,7.0,30.01,West,261,1.0,-999.0,60,-99.99,,,0.00,weatherlink.com 1.10,2013-01-25 21:17:00,
2013-01-25 15:32:00,18.4,7.0,30.02,NE,44,4.0,-999.0,60,-99.99,,,0.00,weatherlink.com 1.10,2013-01-25 21:32:00,
2013-01-25 15:47:00,17.8,7.0,30.03,West,278,2.0,-999.0,62,-99.99,,,0.00,weatherlink.com 1.10,2013-01-25 21:47:00,
2013-01-25 16:02:00,17.2,6.0,30.03,WNW,283,1.0,-999.0,61,-99.99,,,0.00,weatherlink.com 1.10,2013-01-25 22:02:00,
2013-01-25 16:17:00,16.9,6.0,30.04,SW,223,4.0,-999.0,62,-99.99,,,0.00,weatherlink.com 1.10,2013-01-25 22:17:00,
2013-01-25 16:32:00,16.2,6.0,30.05,WNW,284,1.0,-999.0,64,-99.99,,,0.00,weatherlink.com 1.10,2013-01-25 22:32:00,
2013-01-25 16:47:00,15.4,6.0,30.05,NNE,28,1.0,-999.0,65,-99.99,,,0.00,weatherlink.com 1.10,2013-01-25 22:47:00,
2013-01-25 17:02:00,14.8,5.0,30.07,ENE,67,0.0,-999.0,65,-99.99,,,0.00,weatherlink.com 1.10,2013-01-25 23:02:00,
2013-01-25 17:17:00,14.3,5.0,30.08,WNW,283,2.0,-999.0,66,-99.99,,,0.00,weatherlink.com 1.10,2013-01-25 23:17:00,
2013-01-25 17:32:00,13.8,4.0,30.08,WNW,293,2.0,-999.0,65,-99.99,,,0.00,weatherlink.com 1.10,2013-01-25 23:32:00,
2013-01-25 17:47:00,13.5,4.0,30.09,ENE,61,0.0,-999.0,65,-99.99,,,0.00,weatherlink.com 1.10,2013-01-25 23:47:00,
2013-01-25 18:02:00,13.1,3.0,30.10,West,273,3.0,-999.0,65,-99.99,,,0.00,weatherlink.com 1.10,2013-01-26 00:02:00,
2013-01-25 18:17:00,12.9,3.0,30.11,WNW,289,0.0,-999.0,65,-99.99,,,0.00,weatherlink.com 1.10,2013-01-26 00:17:00,
2013-01-25 18:32:00,12.6,3.0,30.10,WNW,288,0.0,-999.0,66,-99.99,,,0.00,weatherlink.com 1.10,2013-01-26 00:32:00,
2013-01-25 18:47:00,12.3,3.0,30.11,WNW,288,0.0,-999.0,66,-99.99,,,0.00,weatherlink.com 1.10,2013-01-26 00:47:00,
2013-01-25 19:03:00,12.1,3.0,30.12,WNW,286,0.0,-999.0,66,-99.99,,,0.00,weatherlink.com 1.10,2013-01-26 01:03:00,
2013-01-25 19:18:00,11.6,2.0,30.13,West,279,3.0,-999.0,66,-99.99,,,0.00,weatherlink.com 1.10,2013-01-26 01:18:00,
2013-01-25 19:33:00,11.2,3.0,30.13,WNW,286,0.0,-999.0,68,-99.99,,,0.00,weatherlink.com 1.10,2013-01-26 01:33:00,
2013-01-25 19:48:00,10.9,2.0,30.14,WNW,286,0.0,-999.0,68,-99.99,,,0.00,weatherlink.com 1.10,2013-01-26 01:48:00,
2013-01-25 20:03:00,10.5,2.0,30.14,North,355,1.0,-999.0,69,-99.99,,,0.00,weatherlink.com 1.10,2013-01-26 02:03:00,
2013-01-25 20:18:00,10.2,2.0,30.16,WNW,298,2.0,-999.0,69,-99.99,,,0.00,weatherlink.com 1.10,2013-01-26 02:18:00,
2013-01-25 20:33:00,9.9,2.0,30.16,WNW,298,0.0,-999.0,69,-99.99,,,0.00,weatherlink.com 1.10,2013-01-26 02:33:00,
2013-01-25 20:48:00,9.3,1.0,30.16,WNW,298,0.0,-999.0,69,-99.99,,,0.00,weatherlink.com 1.10,2013-01-26 02:48:00,
2013-01-25 21:03:00,9.0,1.0,30.18,WNW,298,0.0,-999.0,70,-99.99,,,0.00,weatherlink.com 1.10,2013-01-26 03:03:00,
2013-01-25 21:18:00,8.8,1.0,30.18,West,275,0.0,-999.0,70,-99.99,,,0.00,weatherlink.com 1.10,2013-01-26 03:18:00,
2013-01-25 21:33:00,8.6,1.0,30.18,North,349,0.0,-999.0,70,-99.99,,,0.00,weatherlink.com 1.10,2013-01-26 03:33:00,
2013-01-25 21:48:00,8.4,1.0,30.20,North,350,1.0,-999.0,70,-99.99,,,0.00,weatherlink.com 1.10,2013-01-26 03:48:00,
2013-01-25 22:03:00,8.1,0.0,30.20,West,259,1.0,-999.0,70,-99.99,,,0.00,weatherlink.com 1.10,2013-01-26 04:03:00,
2013-01-25 22:18:00,7.7,0.0,30.20,West,259,0.0,-999.0,70,-99.99,,,0.00,weatherlink.com 1.10,2013-01-26 04:18:00,
2013-01-25 22:33:00,7.4,-1.0,30.21,West,260,2.0,-999.0,70,-99.99,,,0.00,weatherlink.com 1.10,2013-01-26 04:33:00,
2013-01-25 22:48:00,7.0,-1.0,30.22,West,259,2.0,-999.0,70,-99.99,,,0.00,weatherlink.com 1.10,2013-01-26 04:48:00,
2013-01-25 23:03:00,6.7,-1.0,30.23,West,259,1.0,-999.0,70,-99.99,,,0.00,weatherlink.com 1.10,2013-01-26 05:03:00,
2013-01-25 23:19:00,6.3,-1.0,30.24,West,259,0.0,-999.0,71,-99.99,,,0.00,weatherlink.com 1.10,2013-01-26 05:19:00,
2013-01-25 23:34:00,6.1,-1.0,30.24,SSW,206,1.0,-999.0,71,-99.99,,,0.00,weatherlink.com 1.10,2013-01-26 05:34:00,
2013-01-25 23:49:00,5.8,-2.0,30.25,SSW,206,0.0,-999.0,71,-99.99,,,0.00,weatherlink.com 1.10,2013-01-26 05:49:00,